Wind_Speed
11 11 10 10 11 11 11 10 9 9 9 9 9 9 9 8 8 8 9 9 9 9 10 10 10 9 10 11 11 11 10 10 10 10 10 11 12 12 13 13 12 12 12 12
11 11 11 11 11 11 11 10 10 10 10 10 10 10 10 10 9 9 9 9 10 10 10 10 11 11 11 11 12 12 11 11 11 12 11 11 12 13 13 13 13 13 13 13
12 11 11 12 12 11 11 11 10 10 10 11 11 10 10 10 10 9 9 9 10 10 11 11 11 11 12 12 12 13 12 12 12 12 11 12 13 13 13 13 13 12 13 13
12 12 12 12 11 12 11 11 12 12 11 11 11 11 10 10 10 9 9 9 10 11 11 11 11 12 13 13 13 13 13 13 13 13 13 13 12 12 13 13 13 13 14 13
12 12 12 11 11 11 11 12 12 12 12 12 13 12 10 10 9 9 9 9 9 10 11 11 11 12 13 13 14 14 14 14 13 13 13 14 13 14 14 14 14 14 14 15
12 12 12 12 12 12 11 11 12 12 12 12 12 12 10 9 9 9 10 10 10 10 10 11 12 13 13 13 14 14 14 14 14 13 14 14 15 15 15 15 14 14 14 15
13 13 13 13 13 13 12 11 12 12 12 10 11 11 9 8 8 9 9 10 10 10 11 11 12 13 13 13 14 14 14 15 15 14 14 15 15 15 15 16 16 16 16 15
14 13 13 13 13 13 13 12 12 12 11 10 10 11 10 10 10 10 10 10 10 11 11 12 12 12 13 14 14 14 14 15 15 16 16 16 16 15 16 17 17 17 17 18
14 14 14 14 13 13 13 12 12 13 13 12 12 12 12 12 11 11 11 11 11 11 11 12 12 13 13 13 14 14 14 15 16 16 16 16 16 16 17 17 17 18 18 19
15 15 14 14 14 13 13 13 15 15 15 14 13 13 13 13 12 12 13 12 12 12 12 13 13 13 14 15 15 15 16 16 17 17 17 18 18 18 18 19 19 18 19 20
16 16 15 15 15 15 14 15 15 16 16 16 15 14 14 14 13 14 14 14 15 14 14 14 15 14 14 15 15 16 17 17 17 18 18 19 19 20 20 20 20 20 20 20
16 17 17 17 16 16 16 16 16 17 18 18 18 17 16 16 16 16 16 16 17 17 16 16 16 15 15 15 16 17 17 18 18 19 19 20 20 21 21 21 21 21 21 21
18 18 18 17 17 18 18 17 18 18 19 19 19 18 17 17 17 17 17 18 18 18 18 17 17 17 17 17 17 18 18 19 19 20 20 21 21 22 22 22 22 22 22 22
19 19 19 19 18 19 19 18 19 20 21 21 21 20 18 19 19 19 19 19 19 19 20 19 19 18 18 19 19 19 19 19 20 21 21 22 22 22 23 23 23 24 23 24
18 19 19 18 18 20 21 20 20 21 21 21 21 21 20 20 20 20 20 20 20 20 21 21 21 21 21 21 21 21 21 21 21 22 23 23 24 24 24 24 24 24 24 24
20 20 20 19 19 21 22 22 21 21 21 21 22 21 21 21 22 22 22 21 21 21 22 23 23 23 22 22 23 23 23 23 23 24 24 25 26 26 25 25 25 25 25 26
21 21 22 21 21 22 22 21 23 23 21 21 22 22 21 22 22 22 22 22 21 21 22 23 23 23 24 23 24 24 24 24 25 25 26 26 26 27 27 27 27 27 26 27
21 22 23 22 22 23 21 21 22 23 22 22 22 21 21 22 23 23 23 23 23 23 23 23 23 24 24 24 25 25 25 25 25 25 26 27 27 27 27 27 27 27 27 27
21 22 23 23 23 23 21 21 21 22 22 22 22 22 22 23 24 24 24 24 24 24 24 24 24 24 24 24 25 25 26 26 26 27 27 27 27 27 27 27 27 28 28 28
23 23 24 25 25 25 23 21 21 22 23 22 22 22 23 23 25 24 24 24 25 25 25 25 25 25 25 25 26 26 27 27 27 27 27 27 27 27 27 27 27 27 28 27
24 24 25 25 26 26 24 22 22 24 23 23 23 23 24 24 24 25 25 25 25 26 26 25 25 26 26 26 26 27 27 27 28 28 28 27 27 27 27 27 27 27 27 28
25 25 25 25 27 26 25 24 24 24 24 24 25 25 25 25 25 24 25 26 27 27 27 27 26 26 26 27 27 27 28 28 28 28 28 28 28 28 28 28 28 28 28 29
26 25 25 26 27 26 26 25 25 25 25 26 26 26 25 26 26 26 26 27 27 28 28 28 28 28 29 29 29 29 29 29 29 29 28 28 29 28 28 29 29 29 29 29
26 27 27 27 27 26 26 27 27 27 27 27 27 27 27 27 27 27 27 28 28 28 28 28 29 29 29 29 29 29 29 29 29 29 29 29 29 28 29 29 29 29 29 29
25 27 27 28 27 27 28 28 28 28 28 28 28 28 28 28 28 28 28 29 29 28 28 28 29 29 29 29 29 29 29 29 30 29 29 29 29 29 29 29 29 29 28 29
26 26 27 27 27 27 28 28 29 29 29 29 29 29 28 28 28 29 29 29 28 28 28 28 28 28 28 28 28 28 28 28 29 28 28 28 28 28 29 29 29 29 29 29
Wind_Direction
239 239 240 243 243 244 245 249 253 253 255 254 255 258 257 257 257 260 265 268 268 265 265 264 263 261 264 266 268 268 270 272 274 278 282 286 288 290 293 295 293 289 286 284
240 240 242 244 244 246 247 248 251 254 256 256 257 257 257 257 259 262 264 266 270 269 266 264 264 263 262 264 266 267 271 273 276 277 277 285 287 287 291 295 293 289 284 282
246 245 244 244 245 249 251 251 253 256 259 261 262 259 259 261 263 266 266 266 270 273 271 269 266 267 267 266 266 267 272 274 276 279 282 285 285 285 287 290 289 287 284 282
244 242 241 243 246 251 254 256 258 262 267 267 264 263 266 266 267 268 271 269 270 272 271 269 267 267 269 267 266 268 271 274 277 280 281 284 287 287 287 288 288 289 288 285
244 242 243 245 248 251 253 257 261 266 268 267 268 270 266 264 264 269 270 271 273 274 273 274 271 269 268 268 268 269 271 272 274 275 277 280 283 287 290 293 290 289 289 285
243 243 244 245 248 252 250 253 259 263 265 266 270 270 265 263 265 268 271 275 276 277 275 276 277 277 272 271 270 269 268 269 270 272 276 281 284 287 290 294 291 288 287 285
241 242 243 244 245 247 249 252 257 258 261 267 270 272 272 272 269 270 273 278 280 279 274 272 274 275 275 274 272 267 266 268 270 273 277 282 283 284 287 289 290 288 288 290
244 241 243 245 245 247 251 254 256 260 264 265 269 272 276 276 275 276 276 282 283 283 279 275 274 275 274 273 270 267 267 268 271 274 277 279 279 281 286 288 289 288 288 289
248 243 242 244 245 247 253 253 258 263 265 267 269 274 276 276 277 279 279 281 282 281 280 278 276 278 278 272 269 270 271 270 272 275 276 276 277 280 285 286 288 288 288 288
249 244 242 246 247 248 252 256 258 261 265 265 267 272 276 275 278 280 282 283 283 281 280 281 280 276 273 271 272 273 273 274 275 276 276 276 278 279 282 285 286 287 286 286
249 248 244 243 247 251 252 255 258 261 264 268 272 273 275 275 278 282 283 283 283 281 279 279 280 278 272 273 273 274 274 275 276 276 277 279 280 281 283 284 285 286 286 286
248 250 250 248 250 253 255 257 259 264 268 270 271 271 272 275 277 280 282 282 282 281 279 277 277 277 275 275 273 273 274 276 277 277 278 279 281 283 283 283 283 284 285 285
249 249 252 250 252 254 256 258 260 265 266 266 269 272 273 273 274 276 277 279 280 281 279 277 277 276 275 274 273 273 274 275 277 277 278 279 282 284 284 283 282 282 283 284
252 253 255 255 257 257 258 259 261 264 267 268 270 271 269 269 270 273 276 277 278 279 278 278 278 277 275 275 275 275 276 275 276 276 277 279 281 283 283 282 282 282 283 284
252 253 257 258 259 259 260 261 261 262 266 269 270 270 269 269 270 271 274 275 276 278 277 277 278 278 277 276 276 276 277 276 275 276 277 279 280 282 283 282 281 281 282 283
253 255 255 256 259 260 260 260 262 263 264 267 269 269 269 267 267 268 271 272 274 276 277 278 278 278 277 277 276 276 276 276 277 276 278 279 279 280 281 282 281 281 282 282
253 255 257 259 260 261 260 261 262 264 265 266 268 269 269 266 265 266 269 271 275 276 276 276 277 277 277 277 277 277 277 278 279 279 279 279 279 279 279 280 281 282 281 281
252 254 258 262 263 261 263 262 263 265 267 269 268 268 269 269 267 267 268 271 274 275 275 275 276 277 276 276 276 276 277 277 278 279 280 280 280 280 280 279 280 281 281 281
252 255 259 263 264 265 261 263 264 265 264 266 268 269 270 269 268 267 268 270 272 273 276 277 277 278 278 277 277 277 277 278 278 280 281 280 279 279 278 278 279 279 279 279
253 255 258 262 264 266 266 264 265 266 266 267 268 269 271 270 268 267 268 268 269 270 274 276 277 278 278 278 278 279 279 280 280 281 281 281 279 278 278 277 277 278 278 278
253 254 256 259 264 267 268 268 268 267 268 268 268 269 269 268 269 268 268 269 269 270 272 274 275 277 277 278 279 280 281 281 281 281 281 280 279 278 278 278 278 277 277 277
256 257 256 258 262 265 268 268 267 268 266 266 266 267 268 268 267 268 270 270 270 271 273 274 275 276 277 277 278 280 281 282 282 281 279 278 278 277 277 277 277 277 277 277
256 257 258 258 261 264 265 266 267 266 264 263 265 267 268 269 268 270 271 271 271 272 273 274 275 276 277 278 279 280 280 281 281 280 279 278 277 277 277 278 278 277 277 277
258 258 259 260 262 265 265 264 264 264 264 265 266 267 268 270 271 273 273 272 273 273 273 274 275 277 277 278 279 280 281 280 280 280 279 278 277 277 277 277 277 277 277 276
262 261 262 263 263 263 264 265 264 265 266 266 266 267 269 270 271 272 272 272 273 273 274 274 276 278 279 280 281 281 281 281 281 280 279 279 278 277 276 277 276 277 276 276
261 263 264 265 264 264 264 264 265 266 268 268 267 267 269 270 271 272 272 272 272 273 273 273 275 278 280 282 282 282 283 283 282 280 279 280 279 279 278 277 275 275 276 276
Height
5833 5835 5835 5836 5837 5838 5838 5838 5838 5839 5839 5839 5839 5839 5839 5839 5839 5839 5839 5839 5839 5840 5840 5840 5840 5840 5840 5840 5840 5839 5839 5839 5838 5838 5837 5836 5836 5835 5834 5832 5831 5830 5829 5828
5831 5832 5833 5833 5834 5834 5835 5836 5836 5836 5836 5836 5836 5836 5836 5836 5836 5836 5837 5836 5836 5836 5836 5836 5836 5837 5837 5837 5836 5836 5836 5836 5835 5835 5834 5833 5833 5831 5830 5829 5828 5826 5826 5825
5828 5830 5829 5830 5831 5832 5832 5833 5833 5833 5833 5833 5833 5834 5834 5833 5833 5833 5833 5833 5833 5833 5833 5833 5833 5833 5833 5833 5833 5833 5832 5832 5832 5831 5831 5830 5829 5828 5827 5825 5824 5823 5822 5822
5825 5826 5826 5827 5828 5828 5829 5829 5830 5830 5830 5830 5831 5830 5831 5830 5830 5830 5830 5830 5830 5829 5829 5829 5829 5829 5829 5829 5829 5829 5829 5829 5828 5828 5827 5827 5826 5825 5824 5822 5821 5820 5819 5818
5822 5823 5823 5824 5825 5826 5826 5826 5826 5826 5826 5827 5826 5827 5828 5826 5827 5827 5827 5826 5826 5826 5825 5825 5825 5825 5825 5825 5825 5825 5825 5825 5824 5824 5824 5823 5822 5821 5820 5819 5817 5816 5815 5814
5819 5819 5820 5821 5822 5822 5822 5823 5823 5823 5823 5824 5823 5823 5824 5823 5823 5823 5823 5823 5823 5822 5822 5821 5821 5821 5821 5821 5821 5821 5821 5821 5821 5820 5820 5819 5818 5817 5816 5815 5813 5812 5811 5810
5815 5815 5816 5817 5818 5818 5819 5820 5820 5819 5819 5820 5819 5819 5821 5820 5820 5820 5820 5819 5819 5819 5818 5818 5818 5817 5817 5816 5817 5817 5817 5817 5817 5816 5816 5815 5814 5813 5812 5811 5809 5808 5807 5806
5810 5812 5813 5813 5814 5815 5815 5816 5817 5817 5816 5817 5816 5815 5817 5816 5816 5816 5816 5816 5815 5815 5814 5814 5814 5813 5813 5812 5812 5812 5813 5812 5812 5812 5811 5811 5810 5809 5808 5807 5805 5804 5802 5801
5806 5808 5809 5809 5810 5811 5812 5812 5813 5813 5812 5812 5812 5813 5813 5812 5812 5812 5812 5811 5811 5811 5810 5810 5810 5809 5809 5808 5808 5808 5808 5808 5808 5807 5807 5806 5806 5805 5804 5802 5800 5799 5798 5796
5802 5803 5805 5806 5806 5807 5808 5808 5808 5808 5808 5808 5808 5808 5809 5808 5808 5808 5807 5807 5807 5807 5806 5806 5805 5805 5805 5804 5804 5804 5804 5803 5803 5802 5802 5801 5800 5800 5799 5797 5796 5794 5792 5791
5797 5798 5800 5801 5802 5803 5804 5804 5804 5804 5803 5803 5803 5806 5804 5803 5803 5803 5803 5802 5802 5801 5801 5801 5800 5800 5800 5799 5799 5799 5799 5799 5798 5797 5797 5796 5795 5794 5793 5792 5790 5788 5787 5785
5792 5793 5794 5796 5798 5798 5799 5799 5799 5800 5799 5798 5798 5802 5800 5799 5799 5798 5798 5797 5796 5796 5796 5796 5795 5795 5795 5795 5794 5794 5794 5793 5793 5792 5791 5790 5789 5788 5787 5785 5784 5782 5781 5779
5787 5788 5789 5791 5794 5793 5793 5793 5794 5794 5794 5793 5793 5797 5795 5794 5793 5793 5792 5792 5791 5791 5790 5790 5790 5790 5790 5789 5789 5789 5788 5788 5787 5786 5785 5784 5783 5782 5780 5779 5777 5776 5774 5773
5782 5783 5785 5786 5787 5787 5787 5788 5788 5788 5788 5788 5788 5790 5789 5789 5788 5787 5787 5786 5785 5785 5784 5784 5784 5784 5784 5783 5783 5783 5782 5782 5781 5780 5779 5778 5777 5775 5774 5772 5770 5769 5767 5766
5776 5777 5778 5779 5781 5781 5782 5782 5782 5782 5782 5782 5783 5782 5783 5782 5782 5782 5781 5781 5780 5779 5779 5778 5778 5778 5778 5777 5777 5776 5776 5775 5774 5773 5772 5771 5770 5768 5767 5765 5763 5762 5760 5758
5770 5771 5772 5773 5774 5774 5774 5775 5776 5775 5775 5775 5775 5776 5776 5776 5776 5776 5776 5775 5775 5774 5773 5772 5772 5772 5771 5770 5770 5769 5769 5768 5767 5766 5765 5764 5762 5761 5759 5757 5756 5754 5752 5751
5764 5765 5766 5767 5768 5768 5768 5769 5769 5769 5769 5769 5769 5770 5769 5769 5769 5769 5769 5769 5769 5768 5767 5766 5766 5765 5764 5763 5763 5762 5761 5760 5759 5758 5757 5756 5754 5753 5751 5749 5748 5746 5745 5743
5758 5759 5759 5760 5762 5761 5765 5762 5762 5761 5762 5762 5761 5762 5762 5762 5762 5762 5762 5762 5761 5761 5760 5759 5758 5758 5757 5756 5755 5754 5753 5752 5752 5750 5749 5748 5746 5744 5743 5741 5740 5738 5736 5735
5752 5752 5753 5753 5753 5754 5756 5756 5755 5754 5755 5755 5755 5755 5755 5754 5754 5754 5754 5754 5754 5754 5753 5752 5751 5750 5749 5749 5748 5746 5745 5744 5743 5742 5740 5739 5737 5736 5735 5733 5732 5730 5728 5727
5745 5745 5746 5746 5746 5746 5749 5749 5748 5748 5747 5749 5748 5748 5748 5747 5747 5748 5747 5747 5747 5746 5746 5745 5744 5743 5742 5741 5739 5738 5737 5736 5735 5733 5731 5730 5729 5727 5726 5725 5723 5722 5720 5719
5738 5738 5738 5739 5738 5739 5741 5741 5741 5741 5741 5741 5740 5740 5740 5739 5740 5740 5739 5739 5739 5739 5738 5737 5736 5734 5733 5732 5731 5730 5729 5727 5726 5724 5723 5721 5720 5719 5717 5716 5715 5713 5712 5711
5730 5730 5731 5731 5732 5735 5733 5733 5733 5733 5733 5732 5732 5732 5732 5732 5732 5732 5731 5731 5731 5730 5729 5729 5727 5726 5725 5724 5722 5721 5720 5719 5717 5715 5714 5713 5711 5710 5709 5707 5706 5705 5704 5703
5722 5723 5723 5724 5726 5725 5725 5725 5724 5724 5724 5724 5724 5724 5724 5724 5724 5724 5723 5723 5722 5722 5721 5720 5719 5718 5716 5715 5714 5712 5711 5710 5708 5706 5705 5704 5702 5701 5700 5699 5697 5696 5695 5694
5714 5715 5715 5715 5716 5716 5716 5716 5716 5716 5716 5716 5716 5716 5716 5716 5715 5715 5715 5714 5713 5713 5712 5711 5710 5708 5707 5706 5705 5703 5702 5700 5699 5697 5696 5695 5693 5692 5691 5690 5688 5687 5686 5685
5707 5706 5707 5707 5708 5708 5708 5708 5708 5708 5708 5708 5708 5708 5707 5707 5707 5706 5706 5705 5704 5704 5703 5701 5700 5699 5698 5696 5695 5694 5692 5691 5689 5688 5687 5686 5684 5683 5682 5681 5679 5678 5677 5676
5698 5698 5698 5699 5700 5699 5700 5699 5699 5699 5699 5699 5699 5699 5699 5698 5697 5697 5697 5696 5695 5694 5693 5692 5691 5690 5689 5687 5686 5685 5683 5682 5680 5679 5678 5677 5675 5674 5673 5671 5670 5669 5668 5667